Middletown, PA

5:51 AM EDT on July 24, 2017 (GMT -0400)
Harrisburg International

Weather History for KMDT - April, 2013

Change the Weather History Date:

Monday, April 8, 2013

  Actual Average Record
Temperature  
Mean Temperature 61 °F 50 °F  
Max Temperature 78 °F 60 °F 89 °F (1929)
Min Temperature 43 °F 40 °F 23 °F (1982)
Degree Days  
Heating Degree Days 4 16  
Month to date heating degree days 155 135  
Since 1 July heating degree days 4755 4846  
Cooling Degree Days 0 0  
Month to date cooling degree days 0 0  
Year to date cooling degree days 0 1  
Growing Degree Days 10 (Base 50)    
Moisture  
Dew Point 44 °F    
Average Humidity 57    
Maximum Humidity 86    
Minimum Humidity 27    
Precipitation  
Precipitation 0.00 in 0.11 in 1.26 in (1940)
Month to date precipitation T 0.85  
Year to date precipitation 7.39 9.49  
Snow  
Snow 0.00 in 0.00 in 6.00 in (1916)
Month to date snowfall T 0.2  
Since 1 July snowfall 17.0 30.4  
Snow Depth 0.00 in    
Sea Level Pressure  
Sea Level Pressure 29.99 in    
Wind  
Wind Speed 4 mph (South)    
Max Wind Speed 16 mph    
Max Gust Speed 23 mph    
Visibility 10 miles    
Events      
T = Trace of Precipitation, MM = Missing Value Source: NWS Daily Summary

Daily Weather History Graph

Daily Weather History Graph

Search for Another Location

Airport or City:

Trip Planner

Search our weather history database for the weather conditions in past years. The results will help you decide how hot, cold, wet, or windy it might be!

Date:

Astronomy

Apr. 08, 2013 Rise Set
Actual Time 6:39 AM EDT 7:38 PM EDT
Civil Twilight 6:11 AM EDT 8:06 PM EDT
Nautical Twilight 5:38 AM EDT 8:39 PM EDT
Astronomical Twilight 5:04 AM EDT 9:14 PM EDT
Moon 5:28 AM EDT (4/8) 6:10 PM EDT (4/8)
Length of Visible Light 13h 54m
Length of Day
12h 59m
Waning Crescent, 3% of the Moon is Illuminated
Apr 8
Waning Crescent
Apr 10
New
Apr 18
First Quarter
Apr 25
Full
May 2
Last Quarter

Hourly Weather History & Observations

Time (EDT) Temp. Dew Point Humidity Pressure Visibility Wind Dir Wind Speed Gust Speed Precip Events Conditions
12:56 AM 54.0 °F 41.0 °F 62% 29.98 in 10.0 mi East 4.6 mph - N/A   Mostly Cloudy
1:56 AM 51.1 °F 42.1 °F 71% 29.99 in 10.0 mi NNW 3.5 mph - N/A   Scattered Clouds
2:56 AM 48.9 °F 41.0 °F 74% 30.00 in 10.0 mi Calm Calm - N/A   Scattered Clouds
3:56 AM 44.1 °F 39.9 °F 85% 30.00 in 10.0 mi Calm Calm - N/A   Partly Cloudy
4:56 AM 46.0 °F 39.9 °F 79% 30.01 in 10.0 mi Calm Calm - N/A   Mostly Cloudy
5:56 AM 46.0 °F 41.0 °F 83% 30.02 in 10.0 mi Calm Calm - N/A   Overcast
6:56 AM 48.0 °F 42.1 °F 80% 30.04 in 10.0 mi Calm Calm - N/A   Mostly Cloudy
7:56 AM 48.9 °F 44.1 °F 83% 30.06 in 10.0 mi Calm Calm - N/A   Overcast
8:56 AM 52.0 °F 44.1 °F 74% 30.06 in 10.0 mi Calm Calm - N/A   Scattered Clouds
9:56 AM 55.9 °F 44.1 °F 64% 30.07 in 10.0 mi West 3.5 mph - N/A   Mostly Cloudy
10:56 AM 64.0 °F 46.0 °F 52% 30.06 in 10.0 mi Calm Calm - N/A   Scattered Clouds
11:56 AM 68.0 °F 45.0 °F 43% 30.05 in 10.0 mi South 3.5 mph - N/A   Mostly Cloudy
12:56 PM 73.0 °F 45.0 °F 37% 30.03 in 10.0 mi SE 3.5 mph - N/A   Scattered Clouds
1:56 PM 75.9 °F 46.0 °F 35% 30.00 in 10.0 mi ESE 6.9 mph - N/A   Mostly Cloudy
2:56 PM 73.9 °F 46.0 °F 37% 29.97 in 10.0 mi SSE 3.5 mph - N/A   Mostly Cloudy
3:56 PM 73.9 °F 43.0 °F 33% 29.95 in 10.0 mi South 9.2 mph - N/A   Mostly Cloudy
4:56 PM 73.9 °F 42.1 °F 32% 29.93 in 10.0 mi SW 12.7 mph 23.0 mph N/A   Mostly Cloudy
5:56 PM 75.9 °F 39.9 °F 27% 29.93 in 10.0 mi SSW 11.5 mph 23.0 mph N/A   Overcast
6:56 PM 75.0 °F 41.0 °F 29% 29.93 in 10.0 mi SSW 10.4 mph 16.1 mph N/A   Overcast
7:56 PM 69.1 °F 44.1 °F 40% 29.94 in 10.0 mi SSE 9.2 mph - N/A   Mostly Cloudy
8:56 PM 69.1 °F 44.1 °F 40% 29.94 in 10.0 mi South 8.1 mph - N/A   Overcast
9:56 PM 68.0 °F 46.9 °F 47% 29.94 in 10.0 mi South 9.2 mph 18.4 mph N/A   Overcast
10:56 PM 68.0 °F 48.0 °F 49% 29.94 in 10.0 mi SSE 3.5 mph - N/A   Overcast
11:56 PM 68.0 °F 48.0 °F 49% 29.93 in 10.0 mi Variable 3.5 mph - N/A   Overcast